Retour au catalogue

FENGYUN 1C DEB

ActifPO
NORAD 29737·DEBRIS·🇨🇳 China

Lancé May 10, 1999 depuis Taiyuan Satellite Launch Center

Loading…

Prochains Passages (prochaines 24 heures)

TLE

FraisSource: Space-Track

Époque: Sep 14, 2026, 17:01 UTC

1 29737U 99025AB  26257.70940319 -.00000644  00000-0 -12345-2 0  9991
2 29737  99.5743 172.5268 0694320 261.5415 118.7952 12.66286412903616

Suivez FENGYUN 1C DEB en temps réel avec AllMySat

Download on the App Store